Regional Weather Roundup
Issued by NWS Upton, NY

Current Version | Previous Version | Text Only | Print | Product List | Glossary On
Versions: 1 2 3 4 5 6 7 8 9 10 11 12 13 14 15 16 17 18 19 20 21 22 23 24 25 26 27 28 29 30 31 32 33 34 35 36 37 38 39 40 41 42 43 44 45 46 47 48 49 50
000 ASUS41 KOKX 031704 RWROKX REGIONAL WEATHER ROUNDUP NATIONAL WEATHER SERVICE NEW YORK NY 100 PM EDT THU SEP 03 2015 NOTE: "FAIR" INDICATES FEW OR NO CLOUDS BELOW 12,000 FEET WITH NO SIGNIFICANT WEATHER AND/OR OBSTRUCTIONS TO VISIBILITY. NYZ071-072-176-178-NJZ106-104-031800- NEW YORK CITY METRO AREA CITY SKY/WX TMP DP RH WIND PRES REMARKS CENTRAL PARK SUNNY 90 63 40 VRB5 29.89F HX 91 LAGUARDIA APRT MOSUNNY 88 65 46 VRB6 29.85F HX 90 KENNEDY INTL MOSUNNY 90 64 42 N7 29.86F HX 91 NEWARK/LIBERTY MOSUNNY 91 62 37 N9 29.85F HX 91 BRNX BOT. GARD N/A 88 66 48 NE6 29.87F HX 90 TETERBORO SUNNY 90 60 36 NE7 29.85F $$ NYZ177-179-078>081-031800- LONG ISLAND NEW YORK CITY SKY/WX TMP DP RH WIND PRES REMARKS FARMINGDALE SUNNY 90 66 45 NE8 29.86F HX 92 ISLIP MOSUNNY 88 65 46 N5 29.84F HX 90 SHIRLEY MOSUNNY 85 71 63 MISG 29.86F HX 90 WESTHAMPTON MOSUNNY 84 71 65 S8 29.87F MONTAUK POINT N/A 83 71 67 W5 29.87F $$ NYZ052-065-067-031800- HUDSON VALLEY CITY SKY/WX TMP DP RH WIND PRES REMARKS WHITE PLAINS SUNNY 88 65 46 NW9 29.87F HX 90 NEWBURGH SUNNY 86 70 58 VRB6 29.90 HX 90 MONTGOMERY MOSUNNY 88 68 51 N7 29.89F HX 91 POUGHKEEPSIE SUNNY 88 67 49 NE8 29.87F HX 91 ALBANY PTSUNNY 85 69 58 E5 29.88F $$ NJZ001-105-106-008-010-013-015-019>022-104-031800- NEW JERSEY CITY SKY/WX TMP DP RH WIND PRES REMARKS NEWARK/LIBERTY MOSUNNY 91 62 37 N9 29.85F HX 91 TETERBORO SUNNY 90 60 36 NE7 29.85F CALDWELL SUNNY 90 60 36 NE6 29.87F MORRISTOWN SUNNY 90 61 37 E9 29.87F SOMERVILLE SUNNY 89 59 36 CALM 29.85F SUSSEX MOSUNNY 86 64 47 SE6 29.89F ANDOVER N/A 86 66 51 CALM 29.90F TRENTON SUNNY 90 61 37 NE8 29.87F HX 90 MILLVILLE MOSUNNY 91 65 41 NW8 29.88S HX 93 ATLANTIC CITY MOSUNNY 92 66 42 NW12 29.86F HX 94 WRIGHTSTOWN SUNNY 87 66 49 VRB6 29.84F TOMS RIVER SUNNY 88 64 45 N6 29.87F BELMAR SUNNY 88 64 45 NW8 29.87F $$ PAZ047>061-062-071-031800- EASTERN PENNSYLVANIA CITY SKY/WX TMP DP RH WIND PRES REMARKS PHILADELPHIA MOSUNNY 92 64 39 N7 29.87F HX 93 ALLENTOWN MOSUNNY 89 67 47 CALM 29.89F HX 92 SCRANTON MOSUNNY 87 68 52 NW7 29.93F HX 90 $$ CTZ002-004>006-009-010-012-RIZ004-006-007-MAZ004-011-015-031800- SOUTHERN NEW ENGLAND IN CT CITY SKY/WX TMP DP RH WIND PRES REMARKS BRADLEY INTL MOSUNNY 86 68 54 NW7 29.86F HARTFORD SUNNY 87 69 54 N7 29.85F HX 91 DANBURY SUNNY 87 64 46 NE8 29.89F WTRBRY/OXFORD MOSUNNY 84 66 54 NE3 29.91F HAZE BRIDGEPORT SUNNY 81 69 67 S7 29.86F MERIDEN SUNNY 90 66 45 W6 29.85F HX 92 NEW HAVEN MOSUNNY 84 69 60 S9 29.85F CHESTER NOT AVBL GROTON SUNNY 81 71 71 SW9 29.85F WILLIMANTIC PTSUNNY 87 67 51 CALM 29.85F HX 90 IN RI CITY SKY/WX TMP DP RH WIND PRES REMARKS PROVIDENCE MOSUNNY 86 67 52 VRB5 29.84F BLOCK ISLAND SUNNY 82 70 65 SW10 29.87F WESTERLY SUNNY 84 68 58 W8 29.86S IN MA CITY SKY/WX TMP DP RH WIND PRES REMARKS BOSTON MOSUNNY 79 66 64 SE8 29.86S WORCESTER SUNNY 84 62 47 MISG 29.90F WESTFIELD SUNNY 88 65 46 N9 29.87F HX 90 PROVINCETOWN N/A 75 64 69 N7 29.86F NANTUCKET N/A N/A N/A N/A MISG 29.86 $$ ANZ330-335-338-340-345-350-353-355-031800- COASTAL MARINE OBSERVATIONS STATION/POSITION TIME SKY/WX TEMP WIND PRES VSBY WAVE AIR SEA DIR/SP/G HT/PER (UTC) (F) (DEG/KT/KT) (MB) (MI) (FT/S) NY HARB ENTRANCE 1550 78 78 360/ 4/ 4 1011.4 1/13 4S FIRE IS NOT AVBL 20S FIRE ISLAND 1550 75 76 30/ 6/ 8 1011.1 2/ 6 GREAT SOUTH BAY 1600 76 80 180/ 4/ 6 N/A 23SW MTP 1650 75 75 290/ 2/ 4 1011.0 2/13 HUDSON CANYON NOT AVBL KINGS POINT 1600 83 75 20/ 4/ 6 N/A EXECUTION ROCKS 1600 79 130/ 4/ 6 N/A CENTRAL LI SOUND NOT AVBL EASTERN LI SOUND 1600 74 71 220/ 4/ 6 N/A ROBBINS REEF 1600 82 20/ 9/ 11 N/A $$ >>>>>>>>>>>>>>>>>>>>>>>>>>>> KEY <<<<<<<<<<<<<<<<<<<<<<<<<<< > < > SKY/WX - SKY CONDITION/PRESENT WEATHER < > TMP - TEMPERATURE IN FAHRENHEIT < > DP - DEWPOINT IN FAHRENHEIT < > RH - RELATIVE HUMIDITY IN PERCENT < > WIND - DIRECTION AND SPEED IN MPH < > PRES - MEAN SEA LEVEL PRESSURE IN INCHES OF HG < > WCI - WIND CHILL INDEX < > VSB - VISIBILITY IN MILES < > HX - HEAT INDEX < > TC - TEMPERATURE IN CELSIUS < > VRB - VARIABLE WIND DIRECTION < > < >>>>>>>>>>>>>>>>>>>>>>>>>>>> KEY <<<<<<<<<<<<<<<<<<<<<<<<<<<

USA.gov is the U.S. government's official web portal to all federal, state and local government web resources and services.